HKE746 VHHH-WMKP

Flight info

Callsign HKE746
Flight time N/A
Altitude 36000
Route PECAN V12 EPDOS L642 EPKAL/K0845F360 L642 CN M765 BITOD/N0450F360 M765 VKB W546 BETNU BETNU1F
Aircraft A20N/M-SDE2E3FGHIRWXY/LB1

Departure

Time N/A
Airport Hong Kong International Airport (VHHH)

Arrival

Time 2026-04-30 13:18
Airport Penang International Airport (WMKP)
Time Latitude Longitude Altitude Speed Heading
2026-04-30 12:31 7.25700 104.11902 35881 ft 455 kts 241°
2026-04-30 12:31 7.24066 104.09162 35882 ft 455 kts 240°
2026-04-30 12:32 7.21368 104.04658 35881 ft 455 kts 240°
2026-04-30 12:32 7.18098 103.99209 35881 ft 455 kts 240°
2026-04-30 12:33 7.14826 103.93757 35880 ft 455 kts 240°
2026-04-30 12:33 7.11552 103.88298 35880 ft 455 kts 240°
2026-04-30 12:34 7.08281 103.82846 35884 ft 455 kts 240°
2026-04-30 12:34 7.05015 103.77403 35884 ft 455 kts 240°
2026-04-30 12:35 7.01740 103.71949 35883 ft 455 kts 240°
2026-04-30 12:35 6.98461 103.66491 35884 ft 456 kts 240°
2026-04-30 12:36 6.95173 103.61017 35882 ft 457 kts 240°
2026-04-30 12:36 6.91906 103.55557 35883 ft 457 kts 240°
2026-04-30 12:37 6.88653 103.50073 35884 ft 457 kts 240°
2026-04-30 12:37 6.85396 103.44573 35883 ft 458 kts 240°
2026-04-30 12:38 6.82217 103.39213 35884 ft 458 kts 240°
2026-04-30 12:38 6.78950 103.33712 35882 ft 458 kts 240°
2026-04-30 12:39 6.75677 103.28203 35885 ft 458 kts 240°
2026-04-30 12:39 6.72412 103.22708 35885 ft 458 kts 240°
2026-04-30 12:40 6.69139 103.17202 35887 ft 458 kts 240°
2026-04-30 12:40 6.65871 103.11705 35888 ft 458 kts 239°
2026-04-30 12:41 6.62592 103.06192 35887 ft 461 kts 239°
2026-04-30 12:41 6.59296 103.00653 35887 ft 461 kts 240°
2026-04-30 12:42 6.56003 102.95121 35887 ft 461 kts 240°
2026-04-30 12:42 6.52713 102.89595 35883 ft 461 kts 239°
2026-04-30 12:43 6.49417 102.84060 35887 ft 461 kts 239°
2026-04-30 12:43 6.46077 102.78562 35886 ft 461 kts 238°
2026-04-30 12:44 6.42648 102.73122 35891 ft 462 kts 238°
2026-04-30 12:44 6.39199 102.67680 35889 ft 463 kts 238°
2026-04-30 12:45 6.35730 102.62188 35883 ft 463 kts 238°
2026-04-30 12:45 6.32294 102.56736 35877 ft 463 kts 238°
2026-04-30 12:46 6.28839 102.51249 35870 ft 463 kts 238°
2026-04-30 12:46 6.25392 102.45780 35864 ft 464 kts 238°
2026-04-30 12:47 6.21936 102.40297 35863 ft 464 kts 237°
2026-04-30 12:47 6.18471 102.34824 35855 ft 464 kts 235°
2026-04-30 12:48 6.14097 102.30132 35857 ft 461 kts 216°
2026-04-30 12:48 6.08836 102.26434 35857 ft 462 kts 212°
2026-04-30 12:49 6.03427 102.22945 35859 ft 462 kts 212°
2026-04-30 12:49 5.98037 102.19499 35866 ft 462 kts 212°
2026-04-30 12:50 5.92625 102.16006 35885 ft 462 kts 212°
2026-04-30 12:50 5.87299 102.12548 35885 ft 462 kts 212°
2026-04-30 12:51 5.81848 102.09005 35882 ft 462 kts 212°
2026-04-30 12:51 5.76486 102.05521 35884 ft 462 kts 212°
2026-04-30 12:52 5.71087 102.02015 35661 ft 462 kts 212°
2026-04-30 12:52 5.68392 102.00266 35419 ft 462 kts 212°
2026-04-30 12:52 5.65682 101.98507 35182 ft 464 kts 212°
2026-04-30 12:53 5.62999 101.96740 34954 ft 466 kts 216°
2026-04-30 12:53 5.60644 101.94494 34718 ft 466 kts 232°
2026-04-30 12:53 5.58986 101.91718 34487 ft 466 kts 248°
2026-04-30 12:53 5.58050 101.88608 34006 ft 467 kts 258°
2026-04-30 12:54 5.57426 101.85412 33369 ft 467 kts 260°
2026-04-30 12:54 5.56854 101.82201 32732 ft 467 kts 261°
2026-04-30 12:54 5.56283 101.78998 32096 ft 468 kts 260°
2026-04-30 12:54 5.55703 101.75779 31454 ft 468 kts 260°
2026-04-30 12:55 5.55118 101.72567 30905 ft 467 kts 260°
2026-04-30 12:55 5.54531 101.69360 30380 ft 465 kts 260°
2026-04-30 12:55 5.53951 101.66201 29930 ft 461 kts 259°
2026-04-30 12:55 5.53380 101.63102 29454 ft 457 kts 259°
2026-04-30 12:56 5.52805 101.59978 28913 ft 453 kts 259°
2026-04-30 12:56 5.52237 101.56901 28373 ft 451 kts 259°
2026-04-30 12:56 5.51667 101.53809 27864 ft 448 kts 259°
2026-04-30 12:56 5.51098 101.50728 27343 ft 445 kts 259°
2026-04-30 12:57 5.50539 101.47705 26868 ft 442 kts 259°
2026-04-30 12:57 5.49979 101.44675 26366 ft 439 kts 259°
2026-04-30 12:57 5.49425 101.41676 25891 ft 436 kts 259°
2026-04-30 12:57 5.48873 101.38687 25414 ft 433 kts 259°
2026-04-30 12:58 5.48324 101.35721 24960 ft 430 kts 259°
2026-04-30 12:58 5.47780 101.32778 24503 ft 428 kts 259°
2026-04-30 12:58 5.47239 101.29855 24048 ft 425 kts 259°
2026-04-30 12:58 5.46701 101.26948 23598 ft 423 kts 259°
2026-04-30 12:59 5.46164 101.24048 23067 ft 421 kts 259°
2026-04-30 12:59 5.45633 101.21181 22556 ft 418 kts 259°
2026-04-30 12:59 5.45101 101.18309 22066 ft 414 kts 259°
2026-04-30 12:59 5.44582 101.15508 21580 ft 411 kts 259°
2026-04-30 13:00 5.44057 101.12678 21088 ft 408 kts 259°
2026-04-30 13:00 5.43542 101.09897 20606 ft 405 kts 259°
2026-04-30 13:00 5.43029 101.07131 20138 ft 402 kts 259°
2026-04-30 13:00 5.42528 101.04434 19674 ft 399 kts 259°
2026-04-30 13:01 5.42022 101.01706 19220 ft 396 kts 259°
2026-04-30 13:01 5.41535 100.99082 18787 ft 393 kts 259°
2026-04-30 13:01 5.41037 100.96397 18355 ft 390 kts 259°
2026-04-30 13:01 5.40543 100.93737 17873 ft 388 kts 259°
2026-04-30 13:02 5.40051 100.91087 17372 ft 385 kts 259°
2026-04-30 13:02 5.39749 100.89461 17066 ft 383 kts 259°
2026-04-30 13:02 5.39235 100.86695 16558 ft 380 kts 259°
2026-04-30 13:02 5.38751 100.84096 16072 ft 377 kts 259°
2026-04-30 13:03 5.38272 100.81517 15613 ft 375 kts 259°
2026-04-30 13:03 5.37796 100.78958 15141 ft 372 kts 259°
2026-04-30 13:03 5.37375 100.76402 14702 ft 369 kts 262°
2026-04-30 13:03 5.37052 100.73863 14226 ft 367 kts 263°
2026-04-30 13:04 5.36747 100.71327 13775 ft 365 kts 263°
2026-04-30 13:04 5.36445 100.68805 13280 ft 363 kts 263°
2026-04-30 13:04 5.36143 100.66299 12789 ft 360 kts 263°
2026-04-30 13:04 5.35843 100.63816 12310 ft 358 kts 263°
2026-04-30 13:05 5.35544 100.61346 11842 ft 355 kts 263°
2026-04-30 13:05 5.35251 100.58933 11363 ft 353 kts 263°
2026-04-30 13:05 5.34955 100.56497 10902 ft 350 kts 263°
2026-04-30 13:06 5.34371 100.51697 10084 ft 342 kts 263°
2026-04-30 13:06 5.34088 100.49374 9912 ft 330 kts 263°
2026-04-30 13:06 5.33816 100.47140 9753 ft 318 kts 263°
2026-04-30 13:06 5.33383 100.44999 9472 ft 310 kts 250°
2026-04-30 13:07 5.32348 100.43139 9065 ft 306 kts 228°
2026-04-30 13:07 5.30824 100.41663 8677 ft 302 kts 219°
2026-04-30 13:07 5.29217 100.40317 8270 ft 301 kts 218°
2026-04-30 13:07 5.27616 100.38998 7866 ft 300 kts 218°
2026-04-30 13:08 5.26052 100.37703 7468 ft 298 kts 218°
2026-04-30 13:08 5.24453 100.36374 7083 ft 297 kts 218°
2026-04-30 13:08 5.22893 100.35073 6707 ft 295 kts 219°
2026-04-30 13:08 5.21313 100.33752 6328 ft 294 kts 219°
2026-04-30 13:09 5.19741 100.32437 5929 ft 292 kts 219°
2026-04-30 13:09 5.18186 100.31135 5536 ft 290 kts 219°
2026-04-30 13:09 5.16642 100.29843 5162 ft 288 kts 219°
2026-04-30 13:09 5.15113 100.28562 4788 ft 285 kts 219°
2026-04-30 13:10 5.13606 100.27300 4429 ft 283 kts 219°
2026-04-30 13:10 5.12099 100.26038 4080 ft 280 kts 220°
2026-04-30 13:10 5.10616 100.24795 3742 ft 276 kts 219°
2026-04-30 13:10 5.09149 100.23567 3411 ft 273 kts 220°
2026-04-30 13:11 5.07825 100.22215 3038 ft 271 kts 236°
2026-04-30 13:11 5.07118 100.20500 2688 ft 268 kts 262°
2026-04-30 13:11 5.07261 100.18656 2294 ft 267 kts 288°
2026-04-30 13:11 5.08231 100.17106 2057 ft 261 kts 316°
2026-04-30 13:12 5.09683 100.16088 2024 ft 249 kts 330°
2026-04-30 13:12 5.11128 100.15323 2046 ft 216 kts 333°
2026-04-30 13:12 5.12457 100.14729 2036 ft 206 kts 342°
2026-04-30 13:13 5.15154 100.14799 2024 ft 179 kts 24°
2026-04-30 13:13 5.16143 100.15411 2034 ft 160 kts 39°
2026-04-30 13:13 5.17775 100.16826 2040 ft 146 kts 42°
2026-04-30 13:14 5.18515 100.17501 2032 ft 142 kts 43°
2026-04-30 13:14 5.19258 100.18179 2029 ft 143 kts 43°
2026-04-30 13:14 5.20733 100.19520 1995 ft 144 kts 43°
2026-04-30 13:15 5.21463 100.20184 1834 ft 144 kts 43°
2026-04-30 13:15 5.22939 100.21527 1450 ft 142 kts 43°
2026-04-30 13:15 5.23672 100.22193 1262 ft 142 kts 43°
2026-04-30 13:16 5.24400 100.22857 1077 ft 142 kts 43°
2026-04-30 13:16 5.25108 100.23501 926 ft 142 kts 43°
2026-04-30 13:16 5.25835 100.24163 765 ft 141 kts 42°
2026-04-30 13:17 5.27050 100.25269 461 ft 141 kts 41°
2026-04-30 13:17 5.28013 100.26142 204 ft 142 kts 41°
2026-04-30 13:17 5.29196 100.27218 28 ft 123 kts 41°
2026-04-30 13:18 5.29802 100.27767 28 ft 53 kts 41°
2026-04-30 13:18 5.30295 100.28211 27 ft 52 kts 41°
2026-04-30 13:18 5.30522 100.28416 28 ft 38 kts 45°
2026-04-30 13:19 5.30713 100.28592 28 ft 35 kts 40°
2026-04-30 13:19 5.30865 100.28645 28 ft 16 kts 310°
2026-04-30 13:19 5.30908 100.28558 26 ft 14 kts 257°
2026-04-30 13:19 5.30852 100.28489 26 ft 12 kts 221°
2026-04-30 13:20 5.30791 100.28433 26 ft 12 kts 223°
2026-04-30 13:20 5.30733 100.28379 27 ft 12 kts 223°
2026-04-30 13:20 5.30673 100.28324 28 ft 12 kts 223°
2026-04-30 13:20 5.30615 100.28271 25 ft 11 kts 221°
2026-04-30 13:21 5.30556 100.28219 25 ft 11 kts 221°
2026-04-30 13:21 5.30502 100.28168 26 ft 11 kts 222°
2026-04-30 13:21 5.30448 100.28119 26 ft 10 kts 222°
2026-04-30 13:22 5.30345 100.28023 28 ft 10 kts 225°
2026-04-30 13:22 5.30297 100.27974 27 ft 9 kts 225°
2026-04-30 13:22 5.30195 100.27874 26 ft 13 kts 223°
2026-04-30 13:23 5.30120 100.27798 26 ft 18 kts 226°
2026-04-30 13:23 5.29918 100.27608 30 ft 20 kts 223°
2026-04-30 13:24 5.29719 100.27426 26 ft 19 kts 222°
2026-04-30 13:24 5.29518 100.27244 27 ft 19 kts 222°
2026-04-30 13:25 5.29343 100.27058 30 ft 17 kts 269°
2026-04-30 13:25 5.29380 100.26903 27 ft 10 kts 238°
2026-04-30 13:26 5.29229 100.26765 28 ft 10 kts 223°
2026-04-30 13:26 5.29152 100.26680 26 ft 5 kts 284°
2026-04-30 13:27 5.29183 100.26638 26 ft 3 kts 311°
2026-04-30 13:28 5.29194 100.26624 28 ft 0 kts 311°